sat.trackr.live / text

‹ back to catalog

STARLINK-30850

NORAD 58247 · 2023-171T

PAYLOAD ACTIVE UNKNOWN

§ Identity

Operator
Country
US
Launch date
2023-11-08
Launch site
AFETR
Launch vehicle
Mass (kg)
RCS (m²)

Purposes: comms

External: N2YO · Heavens-Above · Gunter

§ Orbital elements

Epoch: 2026-09-20T11:11:57.879168Z

Period
94.27 min
Inclination
43.0044°
Eccentricity
0.0001591
Mean motion
15.27575501 rev/d
Perigee alt
482.0 km
Apogee alt
484.2 km
Semi-major
6,861.2 km
B*
1.6400e-5
RAAN
265.1920°
Arg perigee
275.7771°
Mean anomaly
84.2900°
Rev number
15,952

§ Raw data

STARLINK-308501 58247U 23171T   26263.46664212  .00000189  00000+0  16400-4 0  99922 58247  43.0044 265.1920 0001591 275.7771  84.2900 15.27575501159523

JSON: /api/v1/satellites/58247 · /tle

For live sub-satellite position, see the globe view (requires WebGL).

§ Visibility from observer

Set your observer location to see the next 7 days of passes ≥ 10°. The values pass through the URL so the page stays shareable.

No JS? Fill the form by hand. The geolocation button needs JavaScript.